Kirksville, MO

7:14 AM CDT on July 23, 2017 (GMT -0500)
Kirksville Regional

Weather History for KIRK - January, 2012

Change the Weather History Date:

Saturday, January 7, 2012

  Actual Average Record
Temperature  
Mean Temperature 34 °F 26 °F  
Max Temperature 47 °F 35 °F 66 °F (2008)
Min Temperature 21 °F 17 °F -14 °F (1968)
Degree Days  
Heating Degree Days 31 39  
Month to date heating degree days 209 273  
Since 1 July heating degree days 2241 2616  
Cooling Degree Days 0 0  
Month to date cooling degree days 0 0  
Year to date cooling degree days 0 0  
Moisture  
Dew Point 23 °F    
Average Humidity 63    
Maximum Humidity 84    
Minimum Humidity 42    
Precipitation  
Precipitation 0.00 in 0.03 in 0.63 in (1937)
Month to date precipitation T 0.23  
Year to date precipitation T 0.23  
Sea Level Pressure  
Sea Level Pressure 30.17 in    
Wind  
Wind Speed 5 mph (NW)    
Max Wind Speed 10 mph    
Max Gust Speed 14 mph    
Visibility 10 miles    
Events      
T = Trace of Precipitation, MM = Missing Value Source: NWS Daily Summary

Daily Weather History Graph

Daily Weather History Graph

Search for Another Location

Airport or City:

Trip Planner

Search our weather history database for the weather conditions in past years. The results will help you decide how hot, cold, wet, or windy it might be!

Date:

Astronomy

Jan. 07, 2012 Rise Set
Actual Time 7:32 AM CST 5:00 PM CST
Civil Twilight 7:02 AM CST 5:30 PM CST
Nautical Twilight 6:28 AM CST 6:04 PM CST
Astronomical Twilight 5:55 AM CST 6:37 PM CST
Moon 3:45 PM CST (1/7) 6:04 AM CST (1/7)
Length of Visible Light 10h 28m
Length of Day
9h 27m
Waxing Gibbous, 97% of the Moon is Illuminated
Jan 7
Waxing Gibbous
Jan 9
Full
Jan 16
Last Quarter
Jan 23
New
Jan 30
First Quarter

Hourly Weather History & Observations

Time (CST) Temp. Windchill Dew Point Humidity Pressure Visibility Wind Dir Wind Speed Gust Speed Precip Events Conditions
12:55 AM 37.9 °F 32.1 °F 25.0 °F 60% 30.01 in 10.0 mi NW 8.1 mph - N/A   Clear
1:55 AM 35.1 °F 29.3 °F 24.1 °F 64% 30.04 in 10.0 mi NW 6.9 mph - N/A   Clear
2:55 AM 33.1 °F 26.9 °F 21.9 °F 64% 30.05 in 10.0 mi NW 6.9 mph - N/A   Clear
3:55 AM 32.0 °F 25.6 °F 21.0 °F 64% 30.06 in 10.0 mi NW 6.9 mph - N/A   Clear
4:55 AM 28.9 °F 25.2 °F 19.9 °F 69% 30.09 in 10.0 mi NW 3.5 mph - N/A   Clear
5:55 AM 26.1 °F 20.5 °F 19.0 °F 75% 30.11 in 10.0 mi WNW 4.6 mph - N/A   Clear
6:55 AM 21.9 °F 15.7 °F 17.1 °F 82% 30.13 in 10.0 mi West 4.6 mph - N/A   Clear
7:55 AM 25.0 °F 18.1 °F 19.0 °F 78% 30.16 in 10.0 mi WNW 5.8 mph - N/A   Clear
8:55 AM 33.1 °F 28.7 °F 23.0 °F 66% 30.16 in 10.0 mi WNW 4.6 mph - N/A   Clear
9:55 AM 39.0 °F 34.8 °F 24.1 °F 55% 30.19 in 10.0 mi NNW 5.8 mph - N/A   Clear
10:55 AM 41.0 °F 35.2 °F 25.0 °F 53% 30.22 in 10.0 mi WNW 9.2 mph - N/A   Clear
11:55 AM 43.0 °F 40.3 °F 24.1 °F 47% 30.20 in 10.0 mi WNW 4.6 mph - N/A   Clear
12:55 PM 45.0 °F 41.2 °F 24.1 °F 44% 30.17 in 10.0 mi NW 6.9 mph - N/A   Clear
1:55 PM 46.0 °F 42.5 °F 24.1 °F 42% 30.16 in 10.0 mi WNW 6.9 mph - N/A   Clear
2:55 PM 45.0 °F 40.1 °F 24.1 °F 44% 30.18 in 10.0 mi NNW 9.2 mph - N/A   Clear
3:55 PM 43.0 °F 40.3 °F 24.1 °F 47% 30.19 in 10.0 mi North 4.6 mph - N/A   Clear
4:55 PM 39.0 °F 36.8 °F 24.1 °F 55% 30.22 in 10.0 mi NNW 3.5 mph - N/A   Clear
5:55 PM 37.0 °F 33.3 °F 24.1 °F 59% 30.23 in 10.0 mi NNW 4.6 mph - N/A   Clear
6:55 PM 30.9 °F - 21.9 °F 69% 30.25 in 10.0 mi Calm Calm - N/A   Clear
7:55 PM 28.9 °F - 21.9 °F 75% 30.27 in 10.0 mi Calm Calm - N/A   Clear
8:55 PM 32.0 °F 28.7 °F 24.1 °F 73% 30.27 in 10.0 mi NNE 3.5 mph - N/A   Clear
9:55 PM 30.9 °F - 24.1 °F 76% 30.27 in 10.0 mi Calm Calm - N/A   Scattered Clouds
10:55 PM 30.0 °F 25.2 °F 23.0 °F 75% 30.29 in 10.0 mi NNE 4.6 mph - N/A   Scattered Clouds
11:55 PM 27.0 °F 20.5 °F 21.9 °F 81% 30.28 in 10.0 mi NNE 5.8 mph - N/A   Clear